QPF
0.00 0.00 0.00 0.00 0.00 0.00 0.00 0.00 0.00 0.00 0.00 0.00 0.00 0.00 0.00 0.00 0.00 0.00 0.00 0.00 0.00 0.00 0.00 0.00 0.00 0.00 0.00 0.00 0.00 0.00 0.00 0.00 0.00 0.00 0.00 0.00 0.00 0.00 0.00 0.00 0.00 0.00 0.00 0.00
0.00 0.00 0.00 0.00 0.00 0.00 0.00 0.00 0.00 0.00 0.00 0.00 0.00 0.00 0.00 0.00 0.00 0.00 0.00 0.00 0.00 0.00 0.00 0.00 0.00 0.00 0.00 0.00 0.00 0.00 0.00 0.00 0.00 0.00 0.00 0.00 0.00 0.00 0.00 0.00 0.00 0.00 0.00 0.00
0.00 0.00 0.00 0.00 0.00 0.00 0.00 0.00 0.00 0.00 0.00 0.00 0.00 0.00 0.00 0.00 0.00 0.00 0.00 0.00 0.00 0.00 0.00 0.00 0.00 0.00 0.00 0.00 0.00 0.00 0.00 0.00 0.00 0.00 0.00 0.00 0.00 0.00 0.00 0.00 0.00 0.00 0.00 0.00
0.00 0.00 0.00 0.00 0.00 0.00 0.00 0.00 0.00 0.00 0.00 0.00 0.00 0.00 0.00 0.00 0.00 0.00 0.00 0.00 0.00 0.00 0.00 0.00 0.00 0.00 0.00 0.00 0.00 0.00 0.00 0.00 0.00 0.00 0.00 0.00 0.00 0.00 0.00 0.00 0.00 0.00 0.00 0.00
0.00 0.00 0.00 0.00 0.00 0.00 0.00 0.00 0.00 0.00 0.00 0.00 0.00 0.00 0.00 0.00 0.00 0.00 0.00 0.00 0.00 0.00 0.00 0.00 0.00 0.00 0.00 0.00 0.00 0.00 0.00 0.00 0.00 0.00 0.00 0.00 0.00 0.00 0.00 0.00 0.00 0.00 0.00 0.00
0.00 0.00 0.00 0.00 0.00 0.00 0.00 0.00 0.00 0.00 0.00 0.00 0.00 0.00 0.00 0.00 0.00 0.00 0.00 0.00 0.00 0.00 0.00 0.00 0.00 0.00 0.00 0.00 0.00 0.00 0.00 0.00 0.00 0.00 0.01 0.00 0.00 0.00 0.00 0.00 0.00 0.00 0.00 0.00
0.00 0.00 0.00 0.00 0.00 0.00 0.00 0.00 0.00 0.00 0.00 0.00 0.00 0.00 0.00 0.00 0.00 0.00 0.00 0.00 0.00 0.00 0.00 0.00 0.00 0.00 0.00 0.00 0.00 0.00 0.00 0.00 0.00 0.00 0.01 0.01 0.01 0.00 0.00 0.00 0.00 0.00 0.00 0.00
0.00 0.00 0.00 0.00 0.00 0.00 0.00 0.00 0.00 0.00 0.00 0.00 0.00 0.00 0.00 0.00 0.00 0.00 0.00 0.00 0.00 0.00 0.00 0.00 0.00 0.00 0.00 0.00 0.00 0.00 0.00 0.00 0.00 0.00 0.00 0.00 0.01 0.01 0.00 0.00 0.00 0.00 0.00 0.00
0.00 0.00 0.00 0.00 0.00 0.00 0.00 0.00 0.00 0.00 0.00 0.00 0.00 0.00 0.00 0.00 0.00 0.00 0.00 0.00 0.00 0.00 0.00 0.00 0.00 0.00 0.00 0.00 0.00 0.00 0.00 0.00 0.00 0.00 0.00 0.00 0.00 0.01 0.01 0.00 0.00 0.00 0.00 0.00
0.00 0.00 0.00 0.00 0.00 0.00 0.00 0.00 0.00 0.00 0.00 0.00 0.00 0.00 0.00 0.00 0.00 0.00 0.00 0.00 0.00 0.00 0.00 0.00 0.00 0.00 0.00 0.00 0.00 0.00 0.00 0.00 0.00 0.00 0.00 0.00 0.00 0.00 0.01 0.01 0.01 0.01 0.01 0.00
0.00 0.00 0.00 0.00 0.00 0.00 0.00 0.00 0.00 0.00 0.00 0.00 0.00 0.00 0.00 0.00 0.00 0.00 0.00 0.00 0.00 0.00 0.00 0.00 0.00 0.00 0.00 0.00 0.00 0.00 0.00 0.00 0.00 0.00 0.00 0.00 0.00 0.00 0.00 0.01 0.02 0.02 0.03 0.03
0.00 0.00 0.00 0.00 0.00 0.00 0.00 0.00 0.00 0.00 0.00 0.00 0.00 0.00 0.00 0.00 0.00 0.00 0.00 0.00 0.00 0.00 0.00 0.00 0.00 0.00 0.00 0.00 0.00 0.00 0.00 0.00 0.00 0.00 0.00 0.00 0.00 0.00 0.00 0.00 0.01 0.02 0.03 0.04
0.00 0.00 0.00 0.00 0.00 0.00 0.00 0.00 0.00 0.00 0.00 0.00 0.00 0.00 0.00 0.00 0.00 0.00 0.00 0.00 0.00 0.00 0.00 0.00 0.00 0.00 0.00 0.00 0.00 0.00 0.00 0.00 0.00 0.00 0.00 0.00 0.00 0.00 0.00 0.00 0.00 0.00 0.00 0.01
0.00 0.00 0.00 0.00 0.00 0.00 0.00 0.00 0.00 0.00 0.00 0.00 0.00 0.00 0.00 0.00 0.00 0.00 0.00 0.00 0.00 0.00 0.00 0.00 0.00 0.00 0.00 0.00 0.00 0.00 0.00 0.00 0.00 0.00 0.00 0.00 0.00 0.00 0.00 0.00 0.00 0.00 0.00 0.01
0.00 0.00 0.00 0.00 0.00 0.00 0.00 0.00 0.00 0.00 0.00 0.00 0.00 0.00 0.00 0.00 0.00 0.00 0.00 0.00 0.00 0.00 0.00 0.00 0.00 0.00 0.00 0.00 0.00 0.00 0.00 0.00 0.00 0.00 0.00 0.00 0.00 0.00 0.00 0.00 0.00 0.00 0.00 0.00
0.00 0.00 0.00 0.00 0.00 0.00 0.00 0.00 0.00 0.00 0.00 0.00 0.00 0.00 0.00 0.00 0.00 0.00 0.00 0.00 0.00 0.00 0.00 0.00 0.00 0.00 0.00 0.00 0.00 0.00 0.00 0.00 0.00 0.00 0.00 0.00 0.00 0.00 0.00 0.00 0.00 0.00 0.00 0.00
0.00 0.00 0.00 0.00 0.00 0.00 0.00 0.00 0.00 0.00 0.00 0.00 0.00 0.00 0.00 0.00 0.00 0.00 0.00 0.00 0.00 0.00 0.00 0.00 0.00 0.00 0.00 0.00 0.00 0.00 0.00 0.00 0.00 0.00 0.00 0.00 0.00 0.00 0.00 0.00 0.00 0.00 0.00 0.00
0.00 0.00 0.00 0.00 0.00 0.00 0.00 0.00 0.00 0.00 0.00 0.00 0.00 0.00 0.00 0.00 0.00 0.00 0.00 0.00 0.00 0.00 0.00 0.00 0.00 0.00 0.00 0.00 0.00 0.00 0.00 0.00 0.00 0.00 0.00 0.00 0.00 0.00 0.00 0.00 0.00 0.00 0.00 0.00
0.00 0.00 0.00 0.00 0.00 0.00 0.00 0.00 0.00 0.00 0.00 0.00 0.00 0.00 0.00 0.00 0.00 0.00 0.00 0.00 0.00 0.00 0.00 0.00 0.00 0.00 0.00 0.00 0.00 0.00 0.00 0.00 0.00 0.00 0.00 0.00 0.00 0.00 0.00 0.00 0.00 0.00 0.00 0.00
0.00 0.00 0.00 0.00 0.00 0.00 0.00 0.00 0.00 0.00 0.00 0.00 0.00 0.00 0.00 0.00 0.00 0.00 0.00 0.00 0.00 0.00 0.00 0.00 0.00 0.00 0.00 0.00 0.00 0.00 0.00 0.00 0.00 0.00 0.00 0.00 0.00 0.00 0.00 0.00 0.00 0.00 0.00 0.00
0.00 0.00 0.00 0.00 0.00 0.00 0.00 0.00 0.00 0.00 0.00 0.00 0.00 0.00 0.00 0.00 0.00 0.00 0.00 0.00 0.00 0.00 0.00 0.00 0.00 0.00 0.00 0.00 0.00 0.00 0.00 0.00 0.00 0.00 0.00 0.00 0.00 0.00 0.00 0.00 0.00 0.00 0.00 0.00
0.00 0.00 0.00 0.00 0.00 0.00 0.00 0.00 0.00 0.00 0.00 0.00 0.00 0.00 0.00 0.00 0.00 0.00 0.00 0.00 0.00 0.00 0.00 0.00 0.00 0.00 0.00 0.00 0.00 0.00 0.00 0.00 0.00 0.00 0.00 0.00 0.00 0.00 0.00 0.00 0.00 0.00 0.00 0.00
0.00 0.00 0.00 0.00 0.00 0.00 0.00 0.00 0.00 0.00 0.00 0.00 0.00 0.00 0.00 0.00 0.00 0.00 0.00 0.00 0.00 0.00 0.00 0.00 0.00 0.00 0.00 0.00 0.00 0.00 0.00 0.00 0.00 0.00 0.00 0.00 0.00 0.00 0.00 0.00 0.00 0.00 0.00 0.00
0.00 0.00 0.00 0.00 0.00 0.00 0.00 0.00 0.00 0.00 0.00 0.00 0.00 0.00 0.00 0.00 0.00 0.00 0.00 0.00 0.00 0.00 0.00 0.00 0.00 0.00 0.00 0.00 0.00 0.00 0.00 0.00 0.00 0.00 0.00 0.00 0.00 0.00 0.00 0.00 0.00 0.00 0.00 0.00
0.00 0.00 0.00 0.00 0.00 0.00 0.00 0.00 0.00 0.00 0.00 0.00 0.00 0.00 0.00 0.00 0.00 0.00 0.00 0.00 0.00 0.00 0.00 0.00 0.00 0.00 0.00 0.00 0.00 0.00 0.00 0.00 0.00 0.00 0.00 0.00 0.00 0.00 0.00 0.00 0.00 0.00 0.00 0.00
0.00 0.00 0.00 0.00 0.00 0.00 0.00 0.00 0.00 0.00 0.00 0.00 0.00 0.00 0.00 0.00 0.00 0.00 0.00 0.00 0.00 0.00 0.00 0.00 0.00 0.00 0.00 0.00 0.00 0.00 0.00 0.00 0.00 0.00 0.00 0.00 0.00 0.00 0.00 0.00 0.00 0.00 0.00 0.00
MSLP
1009.22 1009.17 1008.28 1007.82 1007.52 1006.69 1006.56 1006.18 1006.30 1007.19 1008.87 1009.95 1012.76 1016.52 1019.69 1021.80 1023.03 1024.28 1025.44 1026.30 1026.96 1027.50 1028.25 1028.32 1028.21 1028.04 1027.72 1027.11 1026.44 1025.76 1024.89 1024.12 1022.92 1021.72 1020.41 1018.39 1018.05 1018.03 1018.10 1018.22 1018.35 1018.39 1018.48 1018.67
1009.36 1008.47 1008.01 1007.65 1007.36 1007.33 1007.38 1006.99 1006.84 1007.29 1008.78 1010.38 1013.49 1017.00 1020.15 1022.31 1024.06 1025.45 1026.37 1027.27 1027.91 1028.32 1028.49 1028.72 1028.73 1028.73 1028.61 1028.43 1027.86 1027.11 1026.46 1025.67 1024.77 1023.70 1022.32 1020.78 1019.24 1018.45 1018.34 1018.39 1018.69 1018.75 1018.75 1018.90
1008.03 1008.02 1008.11 1008.09 1008.07 1007.90 1007.58 1007.23 1007.02 1007.67 1009.14 1010.25 1012.79 1016.61 1019.71 1022.49 1024.17 1025.64 1026.90 1027.91 1028.63 1029.15 1029.40 1029.56 1029.50 1029.50 1029.51 1029.32 1029.04 1028.58 1027.95 1027.20 1026.39 1025.45 1023.80 1021.94 1020.29 1019.54 1019.26 1019.09 1019.07 1019.07 1019.22 1019.24
1008.34 1008.07 1008.48 1008.50 1008.09 1008.03 1007.53 1007.41 1007.78 1008.15 1009.09 1009.18 1010.83 1013.65 1018.01 1021.55 1024.03 1025.90 1027.32 1028.38 1029.09 1029.63 1030.06 1030.39 1030.42 1030.29 1030.33 1030.32 1030.16 1029.70 1029.05 1028.35 1027.65 1026.90 1025.81 1024.96 1024.04 1022.96 1022.09 1020.24 1019.63 1019.25 1019.49 1019.53
1008.23 1008.67 1008.83 1008.58 1008.09 1008.10 1007.99 1008.25 1008.19 1008.54 1008.94 1009.27 1010.71 1013.27 1017.95 1021.26 1023.84 1026.35 1028.03 1029.10 1029.82 1030.32 1030.62 1030.82 1030.92 1030.96 1031.03 1030.94 1030.76 1030.47 1030.05 1029.46 1028.88 1028.22 1027.58 1026.76 1025.92 1025.19 1024.24 1022.93 1021.65 1020.28 1019.78 1020.06
1008.70 1009.27 1009.12 1008.67 1009.01 1008.79 1009.02 1008.83 1008.94 1009.09 1009.14 1009.51 1010.31 1013.09 1018.12 1021.64 1024.80 1027.14 1028.83 1029.95 1030.61 1031.04 1031.28 1031.57 1031.65 1031.56 1031.52 1031.38 1031.10 1030.82 1030.46 1030.19 1029.81 1029.35 1028.81 1028.22 1027.62 1026.90 1026.04 1025.38 1024.56 1023.47 1022.18 1021.36
1009.09 1009.32 1009.71 1009.68 1009.42 1009.69 1009.48 1008.99 1008.70 1009.05 1009.30 1008.84 1010.52 1013.51 1020.35 1024.29 1026.91 1028.69 1029.92 1030.82 1031.44 1031.86 1032.02 1032.21 1032.25 1032.18 1032.13 1031.98 1031.76 1031.39 1030.95 1030.60 1030.50 1030.27 1029.89 1029.52 1029.05 1028.43 1027.88 1027.41 1026.66 1025.80 1025.00 1024.25
1009.14 1009.81 1010.00 1010.29 1009.76 1009.42 1009.49 1008.93 1008.04 1007.63 1007.97 1008.88 1012.05 1015.95 1022.15 1025.98 1028.20 1029.82 1030.81 1031.53 1032.19 1032.60 1032.90 1033.09 1033.19 1033.15 1033.06 1032.92 1032.70 1032.42 1031.95 1031.55 1031.20 1030.87 1030.64 1030.55 1030.12 1029.64 1029.19 1028.72 1028.08 1027.40 1026.81 1026.18
1009.88 1010.17 1011.00 1011.18 1011.01 1010.77 1010.01 1009.82 1009.42 1009.04 1009.03 1010.40 1013.12 1019.99 1024.27 1026.84 1028.80 1030.28 1031.40 1032.26 1033.02 1033.51 1033.77 1033.95 1034.04 1034.08 1034.00 1033.85 1033.64 1033.34 1033.04 1032.65 1032.22 1031.77 1031.30 1030.92 1030.72 1030.42 1030.10 1029.68 1029.11 1028.48 1027.84 1026.98
1011.40 1011.30 1011.74 1011.98 1011.94 1011.71 1011.32 1011.18 1010.66 1010.49 1010.17 1011.08 1013.21 1018.35 1023.14 1026.85 1029.01 1030.78 1032.02 1033.12 1033.83 1034.29 1034.56 1034.73 1034.77 1034.85 1034.86 1034.76 1034.61 1034.35 1034.02 1033.61 1033.24 1032.79 1032.20 1031.69 1031.14 1030.69 1030.43 1030.19 1029.63 1029.07 1028.43 1027.67
1012.98 1012.50 1012.99 1012.92 1013.81 1013.61 1012.82 1012.44 1012.26 1012.12 1011.92 1012.79 1015.26 1021.22 1025.12 1027.75 1030.26 1031.74 1033.06 1034.02 1034.69 1035.15 1035.49 1035.66 1035.68 1035.75 1035.83 1035.74 1035.53 1035.28 1034.91 1034.50 1034.04 1033.56 1033.02 1032.48 1031.92 1031.43 1030.90 1030.40 1029.92 1029.44 1028.90 1028.20
1014.82 1014.23 1013.89 1015.14 1016.32 1016.40 1016.23 1015.95 1015.48 1014.80 1014.43 1015.74 1018.75 1024.24 1028.05 1030.11 1031.97 1033.08 1034.04 1034.90 1035.62 1036.16 1036.53 1036.73 1036.76 1036.71 1036.71 1036.65 1036.50 1036.29 1035.97 1035.53 1035.09 1034.52 1033.90 1033.19 1032.64 1032.14 1031.68 1031.11 1030.55 1029.91 1029.21 1028.50
1016.11 1015.82 1016.04 1016.79 1017.59 1017.84 1018.20 1018.92 1018.69 1018.43 1018.65 1019.09 1021.86 1026.55 1030.16 1032.04 1033.33 1034.45 1035.14 1035.94 1036.67 1037.20 1037.60 1037.79 1037.76 1037.75 1037.83 1037.74 1037.54 1037.25 1036.89 1036.42 1035.87 1035.23 1034.62 1033.93 1033.35 1032.81 1032.32 1031.77 1031.14 1030.48 1029.85 1029.19
1017.25 1017.35 1017.70 1018.01 1018.82 1019.49 1020.40 1021.18 1021.42 1021.40 1021.98 1022.69 1024.90 1028.71 1031.86 1033.63 1034.88 1035.80 1036.50 1037.07 1037.60 1038.03 1038.41 1038.58 1038.54 1038.50 1038.50 1038.38 1038.17 1037.84 1037.43 1037.00 1036.41 1035.78 1035.14 1034.43 1033.72 1033.26 1032.81 1032.13 1031.54 1030.88 1030.21 1029.60
1018.59 1018.93 1019.39 1019.98 1020.66 1021.50 1022.63 1023.49 1024.09 1024.45 1025.68 1026.83 1028.83 1030.96 1033.70 1035.67 1036.71 1037.38 1037.86 1038.05 1038.45 1038.82 1039.26 1039.44 1039.38 1039.21 1038.98 1038.75 1038.46 1038.10 1037.63 1037.16 1036.60 1035.94 1035.35 1034.69 1033.99 1033.55 1033.11 1032.25 1031.69 1030.96 1030.30 1029.70
1019.84 1020.20 1020.70 1021.52 1022.30 1023.19 1024.75 1026.11 1026.83 1027.62 1028.71 1029.86 1031.49 1033.73 1036.06 1037.09 1037.71 1037.82 1038.34 1038.78 1039.20 1039.62 1039.99 1040.01 1039.85 1039.61 1039.35 1039.09 1038.65 1038.27 1037.76 1037.24 1036.66 1036.02 1035.40 1034.74 1034.05 1033.58 1033.04 1032.32 1031.67 1030.97 1030.28 1029.63
1020.58 1021.09 1021.70 1022.39 1023.77 1024.97 1027.05 1029.11 1029.75 1030.61 1031.74 1032.80 1033.80 1035.92 1037.09 1037.74 1038.38 1038.79 1039.19 1039.51 1039.87 1040.35 1040.46 1040.36 1040.23 1039.96 1039.70 1039.33 1038.95 1038.48 1037.91 1037.35 1036.71 1036.04 1035.33 1034.62 1033.95 1033.41 1032.78 1032.13 1031.49 1030.86 1030.18 1029.43
1021.39 1021.84 1022.60 1023.70 1025.02 1027.48 1030.53 1031.96 1032.86 1033.30 1034.33 1035.32 1036.34 1037.75 1038.63 1039.14 1039.26 1039.34 1039.63 1039.94 1040.69 1040.87 1040.73 1040.58 1040.37 1040.10 1039.78 1039.37 1039.09 1038.62 1037.99 1037.31 1036.63 1035.98 1035.25 1034.58 1033.99 1033.32 1032.64 1031.99 1031.31 1030.68 1030.02 1029.27
1022.50 1022.66 1023.76 1024.73 1026.10 1029.39 1031.82 1033.66 1034.90 1035.40 1036.41 1037.41 1038.16 1039.02 1039.46 1039.74 1039.22 1039.63 1040.34 1040.96 1040.98 1040.96 1040.83 1040.59 1040.26 1039.82 1039.31 1039.01 1038.64 1038.14 1037.52 1036.94 1036.32 1035.64 1035.00 1034.47 1033.83 1033.13 1032.50 1031.84 1031.23 1030.57 1029.76 1029.06
1023.87 1023.89 1024.14 1025.79 1027.40 1030.28 1033.04 1035.36 1036.69 1037.23 1037.85 1038.86 1039.60 1040.14 1040.41 1040.28 1039.46 1039.79 1040.71 1040.81 1040.71 1040.64 1040.35 1039.98 1039.59 1039.16 1038.93 1038.41 1037.91 1037.38 1036.87 1036.28 1035.66 1035.10 1034.68 1034.19 1033.63 1032.99 1032.32 1031.71 1030.97 1030.30 1029.68 1028.84
1025.51 1025.89 1026.17 1027.00 1028.99 1032.51 1035.16 1036.86 1038.01 1039.02 1040.09 1040.03 1040.65 1041.09 1041.26 1041.25 1041.05 1040.70 1040.71 1040.59 1040.39 1040.04 1039.73 1039.42 1039.06 1038.65 1038.17 1037.68 1037.22 1036.71 1036.19 1035.62 1035.08 1034.73 1034.34 1033.80 1033.32 1032.76 1032.21 1031.55 1030.95 1030.29 1029.56 1028.71
1028.45 1028.89 1029.06 1030.35 1031.78 1034.42 1036.66 1038.30 1039.38 1040.16 1040.72 1041.16 1041.48 1041.62 1041.86 1041.81 1041.49 1041.17 1040.72 1040.20 1039.84 1039.46 1039.11 1038.82 1038.35 1037.91 1037.48 1037.13 1036.63 1036.13 1035.66 1035.19 1034.89 1034.53 1034.06 1033.58 1033.10 1032.62 1032.00 1031.43 1030.77 1030.03 1029.30 1028.69
1031.87 1032.80 1032.59 1033.80 1034.85 1036.56 1038.18 1039.21 1040.47 1041.22 1041.65 1041.82 1042.19 1042.31 1042.36 1042.04 1041.55 1041.13 1040.54 1040.07 1039.46 1039.04 1038.68 1038.33 1037.95 1037.46 1037.05 1036.55 1036.17 1035.62 1035.24 1035.01 1034.63 1034.22 1033.73 1033.29 1032.80 1032.32 1031.79 1031.07 1030.31 1029.80 1029.22 1028.49
1034.16 1034.93 1034.86 1035.75 1037.03 1038.09 1039.43 1040.67 1041.43 1042.14 1042.58 1042.70 1042.57 1042.47 1042.42 1041.96 1041.41 1040.80 1040.15 1039.62 1039.09 1038.62 1038.19 1037.85 1037.45 1036.94 1036.26 1035.97 1035.64 1035.29 1034.88 1034.59 1034.21 1033.71 1033.27 1032.85 1032.37 1031.79 1031.19 1030.84 1030.17 1029.50 1028.98 1028.41
1035.61 1036.30 1036.90 1037.47 1038.65 1039.70 1040.65 1041.10 1041.86 1042.56 1042.86 1042.83 1042.54 1042.25 1041.84 1041.41 1040.78 1040.34 1039.74 1039.19 1038.69 1038.23 1037.83 1037.48 1036.87 1036.20 1035.75 1035.44 1035.04 1034.73 1034.40 1034.07 1033.66 1033.23 1032.81 1032.40 1031.90 1031.37 1030.86 1030.38 1029.77 1029.03 1028.53 1027.92
1036.66 1037.60 1038.34 1038.87 1039.91 1040.57 1041.00 1041.72 1042.31 1042.52 1042.55 1042.32 1041.96 1041.46 1041.14 1040.66 1040.15 1039.77 1039.20 1038.75 1038.31 1037.79 1037.30 1036.64 1036.37 1035.87 1035.30 1034.90 1034.46 1034.10 1033.81 1033.49 1033.11 1032.69 1032.25 1031.83 1031.35 1030.93 1030.44 1029.72 1028.95 1028.54 1027.70 1026.94
Thickness
5615 5611 5618 5630 5636 5647 5646 5652 5651 5652 5646 5645 5622 5596 5575 5563 5560 5554 5546 5542 5539 5538 5534 5534 5537 5539 5542 5548 5554 5560 5567 5573 5582 5590 5600 5618 5620 5620 5619 5619 5619 5619 5620 5619
5604 5610 5628 5636 5638 5636 5632 5635 5641 5649 5643 5633 5605 5580 5560 5550 5539 5534 5531 5526 5524 5524 5525 5525 5526 5527 5528 5531 5536 5542 5548 5555 5562 5569 5580 5592 5603 5609 5609 5609 5608 5609 5610 5610
5613 5620 5621 5622 5620 5620 5626 5630 5637 5634 5626 5627 5604 5575 5554 5541 5537 5529 5522 5516 5512 5508 5508 5508 5511 5513 5513 5515 5519 5523 5528 5535 5542 5550 5562 5575 5585 5591 5594 5596 5597 5598 5597 5599
5607 5620 5611 5610 5615 5620 5619 5635 5629 5626 5617 5620 5628 5621 5579 5547 5530 5520 5512 5505 5501 5498 5495 5493 5494 5496 5497 5498 5500 5505 5510 5516 5522 5529 5537 5542 5547 5553 5562 5579 5583 5585 5585 5586
5604 5599 5599 5603 5614 5620 5617 5619 5619 5617 5613 5619 5616 5610 5552 5548 5533 5508 5498 5491 5486 5484 5482 5481 5481 5482 5482 5483 5485 5488 5492 5497 5502 5508 5512 5518 5523 5529 5536 5546 5556 5567 5570 5570
5598 5597 5600 5607 5602 5606 5606 5606 5605 5605 5606 5590 5618 5615 5562 5551 5514 5495 5482 5474 5470 5468 5468 5466 5465 5467 5467 5469 5472 5475 5478 5480 5483 5487 5491 5495 5500 5505 5511 5516 5521 5530 5541 5548
5590 5588 5588 5591 5592 5590 5593 5596 5589 5582 5578 5596 5610 5613 5512 5479 5470 5466 5460 5455 5453 5451 5450 5449 5449 5450 5451 5453 5455 5458 5462 5465 5466 5467 5470 5472 5476 5481 5485 5488 5494 5500 5507 5514
5581 5571 5578 5578 5587 5590 5585 5593 5595 5587 5594 5607 5589 5588 5484 5461 5453 5446 5442 5439 5435 5432 5430 5429 5429 5430 5431 5432 5434 5436 5440 5443 5446 5449 5450 5451 5454 5458 5462 5466 5470 5476 5480 5487
5577 5572 5563 5562 5567 5571 5579 5570 5586 5582 5595 5582 5571 5459 5451 5448 5440 5434 5426 5421 5414 5411 5409 5409 5409 5408 5409 5410 5412 5414 5416 5419 5422 5426 5430 5432 5434 5436 5439 5443 5447 5453 5458 5465
5557 5562 5553 5552 5557 5559 5561 5565 5564 5567 5562 5569 5592 5540 5494 5441 5433 5419 5409 5398 5394 5391 5389 5388 5388 5387 5387 5388 5388 5390 5393 5395 5398 5401 5405 5408 5412 5416 5418 5421 5425 5430 5435 5442
5535 5543 5540 5542 5526 5536 5551 5553 5552 5551 5558 5562 5570 5505 5440 5427 5406 5398 5387 5379 5374 5371 5368 5367 5367 5366 5365 5365 5366 5368 5370 5373 5376 5379 5382 5385 5388 5392 5395 5399 5403 5407 5412 5418
5504 5519 5536 5517 5491 5498 5498 5503 5515 5533 5545 5534 5520 5462 5396 5387 5375 5372 5365 5360 5353 5348 5344 5342 5342 5342 5341 5340 5341 5342 5344 5347 5350 5353 5357 5362 5365 5368 5370 5374 5378 5383 5389 5394
5486 5498 5506 5497 5486 5484 5474 5460 5469 5477 5476 5501 5506 5449 5370 5362 5356 5347 5342 5335 5327 5322 5318 5316 5314 5313 5312 5312 5312 5314 5316 5318 5321 5325 5329 5333 5337 5341 5344 5348 5353 5357 5362 5367
5474 5471 5468 5497 5466 5466 5455 5440 5439 5446 5457 5468 5458 5369 5346 5338 5330 5322 5314 5308 5301 5297 5292 5288 5287 5287 5285 5284 5284 5285 5287 5290 5293 5297 5300 5304 5309 5311 5314 5319 5324 5329 5334 5339
5455 5448 5444 5442 5440 5434 5419 5416 5412 5417 5382 5408 5364 5355 5324 5301 5292 5286 5281 5283 5278 5273 5266 5262 5261 5259 5258 5257 5257 5257 5259 5261 5263 5266 5269 5273 5278 5281 5285 5290 5294 5299 5304 5309
5435 5426 5424 5414 5415 5416 5395 5378 5379 5374 5352 5337 5321 5318 5281 5278 5276 5278 5269 5259 5252 5246 5239 5236 5233 5232 5230 5230 5230 5229 5229 5230 5232 5234 5237 5240 5244 5247 5251 5257 5262 5267 5273 5279
5422 5411 5406 5416 5397 5396 5388 5339 5351 5340 5319 5312 5343 5282 5270 5266 5257 5248 5240 5234 5228 5218 5214 5211 5208 5205 5202 5201 5201 5200 5200 5201 5203 5204 5206 5209 5212 5215 5218 5223 5227 5232 5239 5246
5407 5403 5395 5383 5383 5380 5300 5297 5292 5298 5281 5273 5266 5245 5235 5229 5225 5221 5215 5211 5196 5191 5186 5183 5180 5177 5175 5175 5174 5174 5174 5176 5177 5179 5181 5183 5185 5188 5192 5195 5199 5203 5208 5214
5390 5389 5359 5370 5377 5308 5287 5275 5269 5266 5269 5235 5232 5218 5215 5202 5204 5201 5185 5174 5171 5166 5162 5160 5157 5155 5155 5152 5151 5152 5154 5154 5155 5157 5159 5160 5161 5165 5168 5170 5174 5178 5184 5189
5367 5370 5373 5352 5361 5359 5282 5250 5236 5230 5273 5208 5200 5193 5186 5181 5207 5191 5163 5156 5153 5149 5146 5145 5143 5142 5137 5136 5136 5137 5136 5137 5138 5139 5138 5138 5139 5142 5145 5147 5151 5155 5158 5165
5350 5342 5347 5352 5345 5273 5238 5223 5213 5253 5235 5188 5179 5169 5162 5162 5162 5155 5147 5141 5138 5136 5134 5130 5127 5124 5122 5121 5120 5120 5119 5118 5119 5118 5117 5117 5117 5118 5119 5122 5125 5129 5134 5140
5318 5324 5328 5301 5309 5299 5216 5200 5217 5189 5169 5163 5157 5153 5144 5138 5134 5131 5130 5129 5126 5123 5119 5115 5114 5111 5106 5102 5101 5100 5098 5098 5097 5095 5094 5093 5092 5093 5095 5098 5102 5105 5110 5114
5282 5246 5278 5250 5245 5205 5188 5182 5164 5154 5149 5150 5139 5133 5126 5122 5120 5117 5115 5112 5110 5106 5102 5097 5092 5089 5085 5082 5079 5078 5075 5073 5071 5069 5069 5068 5068 5068 5069 5072 5077 5080 5082 5087
5218 5206 5233 5214 5192 5186 5167 5153 5148 5139 5133 5127 5125 5118 5112 5109 5105 5103 5101 5096 5092 5088 5083 5078 5073 5070 5069 5064 5060 5056 5055 5052 5050 5048 5046 5044 5044 5045 5046 5044 5047 5050 5052 5055
5208 5199 5195 5195 5170 5159 5150 5152 5143 5129 5118 5113 5111 5108 5103 5100 5096 5091 5086 5081 5076 5072 5067 5063 5060 5059 5055 5051 5047 5042 5040 5037 5034 5032 5029 5027 5026 5026 5026 5025 5025 5026 5027 5028
5192 5188 5204 5209 5160 5156 5156 5139 5126 5119 5113 5109 5105 5100 5094 5091 5085 5079 5073 5068 5063 5059 5056 5055 5049 5046 5044 5042 5037 5033 5030 5026 5023 5020 5017 5014 5013 5011 5009 5009 5011 5008 5009 5011